Weather History for Berlin, NH

Change the Weather History Date:

Saturday, January 6, 2001

  Actual Average Record
Temperature  
Mean Temperature 22 °F -  
Max Temperature 26 °F 23 °F 61 °F (2007)
Min Temperature 18 °F 3 °F -23 °F (1999)
Degree Days  
Heating Degree Days 43    
Moisture  
Dew Point 19 °F    
Average Humidity 90    
Maximum Humidity 100    
Minimum Humidity 80    
Precipitation  
Precipitation 0.06 in - - ()
Sea Level Pressure  
Sea Level Pressure 29.58 in    
Wind  
Wind Speed 2 mph (NNW)    
Max Wind Speed 7 mph    
Max Gust Speed -    
Visibility 4 miles    
Events Snow    
Averages and records for this station are not official NWS values.
T = Trace of Precipitation, MM = Missing Value Source: NWS Daily Summary

Daily Weather History Graph

Daily Weather History Graph

Search for Another Location

Airport:

Trip Planner

Search our weather history database for the weather conditions in past years. The results will help you decide how hot, cold, wet, or windy it might be!

Date:

Astronomy

Jan. 06, 2001 Rise Set
Actual Time 7:21 AM EST 4:20 PM EST
Civil Twilight 6:48 AM EST 4:53 PM EST
Nautical Twilight 6:11 AM EST 5:30 PM EST
Astronomical Twilight 5:36 AM EST 6:05 PM EST
Moon 1:38 PM EST (1/6) 3:33 AM EST (1/6)
Length of Visible Light 10h 05m
Length of Day
8h 59m
Waxing Gibbous, 86% of the Moon is Illuminated
Jan 6
Waxing Gibbous
Jan 9
Full
Jan 16
Last Quarter
Jan 24
New
Feb 1
First Quarter

Hourly Weather History & Observations

Time (EST) Temp. Windchill Dew Point Humidity Pressure Visibility Wind Dir Wind Speed Gust Speed Precip Events Conditions
12:52 AM 18.0 °F 8.7 °F 15.1 °F 88% 29.61 in 7.0 mi NNW 6.9 mph - N/A   Overcast
1:26 AM 19.4 °F 12.8 °F 15.8 °F 86% 29.55 in 2.0 mi NW 4.6 mph - 0.00 in Snow Light Snow
1:42 AM 19.4 °F 14.3 °F 15.8 °F 86% 29.55 in 2.0 mi Variable 3.5 mph - 0.00 in Snow Light Snow
1:52 AM 19.0 °F - 16.0 °F 88% 29.61 in 1.8 mi Calm Calm - 0.00 in Snow Light Snow
2:09 AM 19.4 °F 12.8 °F 15.8 °F 86% 29.55 in 2.0 mi NNW 4.6 mph - 0.00 in Snow Light Snow
2:16 AM 19.4 °F - 15.8 °F 86% 29.55 in 1.5 mi Calm Calm - 0.00 in Snow Light Snow
2:24 AM 19.4 °F 14.3 °F 15.8 °F 86% 29.55 in 2.0 mi NW 3.5 mph - 0.00 in Snow Light Snow
2:31 AM 19.4 °F 14.3 °F 15.8 °F 86% 29.55 in 2.5 mi NW 3.5 mph - 0.00 in Snow Light Snow
2:52 AM 19.0 °F 13.9 °F 16.0 °F 88% 29.61 in 3.0 mi NNW 3.5 mph - 0.00 in Snow Light Snow
3:52 AM 19.0 °F - 17.1 °F 92% 29.60 in 4.0 mi Calm Calm - 0.01 in Snow Light Snow
4:52 AM 19.0 °F - 17.1 °F 92% 29.60 in 3.0 mi Calm Calm - 0.00 in Snow Light Snow
5:42 AM 19.4 °F - 17.6 °F 93% 29.55 in 2.5 mi Calm Calm - 0.00 in Snow Light Snow
5:52 AM 19.0 °F - 17.1 °F 92% 29.62 in 2.5 mi Calm Calm - 0.00 in Snow Light Snow
6:03 AM 19.4 °F - 17.6 °F 93% 29.55 in 2.0 mi Calm Calm - 0.00 in Snow Light Snow
6:29 AM 19.4 °F - 17.6 °F 93% 29.55 in 3.0 mi Calm Calm - 0.00 in Snow Light Snow
6:37 AM 19.4 °F - 17.6 °F 93% 29.55 in 3.0 mi Calm Calm - 0.00 in Snow Light Snow
6:45 AM 19.4 °F - 17.6 °F 93% 29.55 in 3.0 mi Calm Calm - 0.00 in Snow Light Snow
6:52 AM 19.0 °F - 17.1 °F 92% 29.62 in 4.0 mi Calm Calm - 0.00 in Snow Light Snow
7:09 AM 19.4 °F - 17.6 °F 93% 29.56 in 3.0 mi Calm Calm - 0.00 in Snow Light Snow
7:26 AM 19.4 °F - 17.6 °F 93% 29.56 in 2.5 mi Calm Calm - 0.00 in Snow Light Snow
7:36 AM 19.4 °F - 17.6 °F 93% 29.56 in 2.5 mi Calm Calm - 0.00 in Snow Light Snow
7:42 AM 19.4 °F - 17.6 °F 93% 29.56 in 1.8 mi Calm Calm - 0.00 in Snow Light Snow
7:52 AM 19.0 °F - 17.1 °F 92% 29.62 in 1.0 mi Calm Calm - 0.00 in Snow Light Snow
7:59 AM 19.4 °F - 17.6 °F 93% 29.56 in 0.8 mi Calm Calm - 0.00 in Snow Light Snow
8:16 AM 19.4 °F - 17.6 °F 93% 29.57 in 1.2 mi Calm Calm - 0.01 in Snow Light Snow
8:31 AM 19.4 °F - 17.6 °F 93% 29.57 in 1.0 mi Calm Calm - 0.01 in Snow Light Snow
8:52 AM 19.9 °F - 18.0 °F 92% 29.63 in 1.2 mi Calm Calm - 0.02 in Snow Light Snow
9:01 AM 19.4 °F - 17.6 °F 93% 29.57 in 1.5 mi Calm Calm - 0.00 in Snow Light Snow
9:35 AM 19.4 °F - 17.6 °F 93% 29.57 in 2.0 mi Calm Calm - 0.00 in Snow Light Snow
9:52 AM 21.0 °F - 18.0 °F 88% 29.63 in 1.5 mi Calm Calm - 0.00 in Snow Light Snow
10:09 AM 21.2 °F - 17.6 °F 86% 29.57 in 1.8 mi Calm Calm - 0.00 in Snow Light Snow
10:17 AM 21.2 °F - 17.6 °F 86% 29.57 in 3.0 mi Calm Calm - 0.00 in Snow Light Snow
10:44 AM 21.2 °F - 17.6 °F 86% 29.56 in 2.5 mi Calm Calm - 0.00 in Snow Light Snow
10:52 AM 21.0 °F - 18.0 °F 88% 29.62 in 1.8 mi Calm Calm - 0.00 in Snow Light Snow
10:54 AM 21.2 °F - 17.6 °F 86% 29.56 in 1.2 mi Calm Calm - 0.01 in Snow Light Snow
11:15 AM 21.2 °F - 19.4 °F 93% 29.55 in 1.5 mi Calm Calm - 0.01 in Snow Light Snow
11:22 AM 21.2 °F - 19.4 °F 93% 29.55 in 1.0 mi Calm Calm - 0.01 in Snow Light Snow
11:27 AM 21.2 °F - 19.4 °F 93% 29.55 in 0.8 mi Calm Calm - 0.01 in Snow Light Snow
11:40 AM 21.2 °F - 19.4 °F 93% 29.54 in 1.0 mi Calm Calm - 0.02 in Snow Light Snow
11:52 AM 21.9 °F - 19.9 °F 92% 29.60 in 1.5 mi Calm Calm - 0.02 in Snow Light Snow
11:57 AM 21.2 °F - 19.4 °F 93% 29.54 in 2.0 mi Calm Calm - 0.00 in Snow Light Snow
12:25 PM 23.0 °F - 21.2 °F 93% 29.53 in 3.0 mi Calm Calm - 0.00 in Snow Light Snow
12:52 PM 24.1 °F - 21.0 °F 88% 29.59 in 7.0 mi Calm Calm - 0.00 in Snow Light Snow
1:52 PM 25.0 °F - 21.0 °F 85% 29.57 in 8.0 mi Calm Calm - 0.00 in   Overcast
2:52 PM 26.1 °F - 23.0 °F 88% 29.58 in 5.0 mi Calm Calm - 0.00 in Snow Light Snow
2:59 PM 26.6 °F - 23.0 °F 86% 29.53 in 4.0 mi Calm Calm - 0.00 in Snow Light Snow
3:25 PM 26.6 °F - 24.8 °F 93% 29.54 in 1.8 mi Calm Calm - 0.00 in Snow Light Snow
3:52 PM 26.1 °F - 24.1 °F 92% 29.60 in 1.8 mi Calm Calm - 0.01 in Snow Light Snow
4:03 PM 26.6 °F - 24.8 °F 93% 29.55 in 2.5 mi Calm Calm - 0.00 in Snow Light Snow
4:10 PM 26.6 °F - 24.8 °F 93% 29.55 in 3.0 mi Calm Calm - 0.00 in Snow Light Snow
4:44 PM 24.8 °F - 24.8 °F 100% 29.56 in 9.0 mi Calm Calm - 0.00 in   Overcast
4:52 PM 24.1 °F - 21.9 °F 91% 29.61 in 9.0 mi Calm Calm - 0.00 in   Overcast
5:13 PM 23.0 °F - 21.2 °F 93% 29.56 in 7.0 mi Calm Calm - N/A   Mostly Cloudy
5:52 PM 24.1 °F - 21.0 °F 88% 29.62 in 10.0 mi Calm Calm - N/A   Mostly Cloudy
6:02 PM 23.0 °F 17.0 °F 19.4 °F 86% 29.57 in 9.0 mi NNW 4.6 mph - N/A   Scattered Clouds
6:29 PM 24.8 °F 19.1 °F 19.4 °F 80% 29.58 in 10.0 mi North 4.6 mph - N/A   Mostly Cloudy
6:52 PM 24.1 °F 19.7 °F 19.9 °F 84% 29.65 in 10.0 mi NNW 3.5 mph - N/A   Overcast
7:52 PM 24.1 °F 19.7 °F 19.9 °F 84% 29.66 in 10.0 mi NNW 3.5 mph - N/A   Overcast
8:52 PM 24.1 °F - 19.9 °F 84% 29.65 in 10.0 mi Calm Calm - N/A   Overcast
9:52 PM 21.9 °F - 19.9 °F 92% 29.66 in 9.0 mi Calm Calm - N/A   Overcast
10:52 PM 21.9 °F - 19.0 °F 89% 29.67 in 8.0 mi Calm Calm - N/A   Overcast
11:52 PM 21.9 °F - 19.9 °F 92% 29.67 in 8.0 mi Calm Calm - N/A   Overcast